STARLINK-32473, 62049

Orbit data source: Space-Track

STARLINK-32473, 62049 is a payload satellite owned by SpaceX/Seattle (US) in LEO that was launched on Thu, 21 Nov 2024 UTC via an FALCON 9 launch vehicle from the Air Force Eastern Test Range (AFETR). Payload-class satellites include a variety of spacecraft equipped with specific instruments for various scientific and technological missions. These include communications satellites like Starlink; space stations such as the ISS; scientific satellites like the Hubble; Earth observation satellites from companies like Planet Labs, Umbra, and HawkEye 360; GPS; miniature CubeSats for education and research; and military/defense satellites.

Loading next visibility...
Identifier
62049, 2024-216T
Orbit
LEO
Country
Flag of USUS
Related business
Manufacturer
SpaceX/Seattle
Mission
Operational Commercial Communications
Bus & Motor
STARLINK V2M, Unknown motor
Mass
730 kg wet, ~700 kg dry
Launch date (UTC)
2024-11-21 (1 year ago)
Launch vehicle
FALCON 9
Launch site
Air Force Eastern Test Range (AFETR)
Object type
Payload
Rocket body
Debris
Shape & HBR
Box + 2 Pan, 17.7 m
Radar Cross Section
33.884 m², Large (>1 m²)

Expand to show TLE details & history
Last TLE update: 20 hours ago

TLE from 20 hours ago
0 STARLINK-32473
1 62049U 24216T   26106.54029590  .00006067  00000-0  22977-3 0  9994
2 62049  43.0049  42.6244 0000907 280.6892  79.3857 15.27585827 78505
Epoch: 2026-04-16T12:58Z
TLE epoch observation values (Epoch: 2026-04-16T12:58:01.565Z)
Latitude
-0.00007°
Longitude
3.43143°
Altitude
482.693 km
Speed
7.626 km/s
True Right ascension
02h 50m 29s
True Declination
0° 00' 00"
Sunlit
Object was in daylight at epoch
Visualization orbit readout
Latitude
Unknown
Longitude
Unknown
Altitude
Unknown
Speed
Unknown
Apparent Right ascension
Unknown
Apparent Declination
Unknown
Sunlit
N/A
Visualization observer readout
Local Sidereal Time
15:54:32
Azimuth
Unknown
Elevation
Unknown
Doppler factor
Unknown
Orbital elements
Apogee altitude
485.598 km
Perigee altitude
484.354 km
Semi-major axis
6,863.113 km
Eccentricity
0.00009
Inclination
43.0049°
RAAN
42.6244°
Arg. of periapsis
280.6892°
True anomaly
79.39592°
Mean anomaly
79.3857°
Eccentric anomaly
79.39081°
Mean motion
3.81735 °/min
Orbital period
94.31 mins
BSTAR
0.00022977
Loading maneuver chart data...
Computing Atmospheric mass density...
Loading historical data...
Loading historical data...
Loading historical data...
Loading historical data...
Loading historical data...
Loading historical data...
Loading historical data...

Documentation

Showing up to 5 results
|